Torna al catalogo

STARLINK-3139

AttivoComunicazioniVLEO
NORAD 49425·PAYLOAD·🇺🇸 United States

Lanciato Nov 13, 2021 da Cape Canaveral Space Force Station

Loading…

Prossimi Passaggi (prossime 24 ore)

TLE

AggiornatoSource: CelesTrak SupGP

Epoca: Sep 14, 2026, 20:21 UTC

1 49425C 21104T   26257.84840278 -.00003911  00000+0 -12578-3 0  2573
2 49425  53.1570  87.1459 0001264  85.7023   6.3386 15.31699382    13

Traccia STARLINK-3139 in tempo reale con AllMySat

Download on the App Store